Location: *
(43.0409°N, 0.1694°E)
Time: 21:34:04
(UTC+00:00)

NOSS 0 Rocket - Pass Details

Date: 03 October 2023
Orbit: 933 x 955 km, 70.0° (Epoch: 05 December)

Event Time Altitude Azimuth Distance (km) Brightness Sun altitude
Rises 04:09:35 0° 333° (NNW) 3,639 6.9 -20.5°
Reaches altitude 10° 04:12:08 10° 333° (NNW) 2,691 6.2 -20.1°
Maximum altitude 04:18:24 85° 247° (WSW) 964 3.9 -19.0°
Drops below altitude 10° 04:24:38 10° 158° (SSE) 2,674 6.4 -17.9°
Sets 04:27:09 0° 158° (SSE) 3,614 7.1 -17.4°
